Home   Weather   Molepolole   Past weeks

Flag for Botswana Past Weather in Molepolole, Botswana — Yesterday and Last 2 Weeks

Now
68 °F

Passing clouds.


Feels Like: 68 °F
Forecast: 46 / 74 °F
Wind: 13 mph from Northeast

Location: Seretse Khama International Airport

Current Time: Jun 27, 2017 at 12:37:05 pm

Latest Report: Jun 27, 2017 at 12:00 pm


Visibility: N/A

Pressure: 30.30 "Hg (26.51 "Hg at 1145m altitude)

Humidity: 35%

Dew Point: 39 °F

Location of MolepololeLocation

Past Weather in Molepolole — Graph

°F

Molepolole Temperature Yesterday

Maximum temperature yesterday: 72 °F (at 2:00 pm)
Minimum temperature yesterday: 36 °F (at 7:00 am)
Average temperature yesterday: 59 °F

High & Low Weather Summary for the Past Weeks

 TemperatureHumidityPressure
High82 °F (Jun 14, 3:00 pm)100% (Jun 20, 5:00 am)30.42 "Hg (Jun 20, 5:00 am)
Low36 °F (Jun 26, 7:00 am)11% (Jun 23, 5:00 pm)30.12 "Hg (Jun 13, 1:00 pm)
Average59 °F55%30.25 "Hg
* Reported Jun 12 11:00 am — Jun 27 11:00 am, Molepolole. Weather by CustomWeather, © 2017

Note: Actual official high and low records may vary slightly from our data, if they occured in-between our weather recording intervals... More about our weather records

Advertising

Molepolole Weather History for the Previous 24 Hours

Scroll right to see more
 ConditionsComfort  
Time TempWeatherWind HumidityBarometerVisibility
11:00 am
Tue, Jun 27
64 °FPassing clouds.15 mph40%30.33 "HgN/A
10:00 am61 °FPassing clouds.16 mph48%30.33 "HgN/A
9:00 am57 °FPassing clouds.9 mph59%30.33 "HgN/A
8:00 am52 °FSunny.9 mph72%30.30 "Hg10 mi
7:00 am50 °FSunny.7 mph76%30.33 "Hg10 mi
6:00 am52 °FClear.7 mph72%30.33 "Hg10 mi
5:00 am54 °FClear.7 mph63%30.33 "Hg10 mi
1:00 am57 °FClear.5 mph55%30.33 "Hg10 mi
12:00 am55 °FPassing clouds.5 mph59%30.30 "HgN/A
11:00 pm
Mon, Jun 26
55 °FPassing clouds.7 mph59%30.30 "HgN/A
10:00 pm55 °FClear.3 mph59%30.30 "Hg10 mi
9:00 pm57 °FPassing clouds.7 mph55%30.27 "HgN/A
8:00 pm57 °FClear.6 mph55%30.27 "Hg10 mi
7:00 pm61 °FClear.8 mph48%30.27 "Hg10 mi
6:00 pm64 °FClear.6 mph40%30.24 "Hg10 mi
5:00 pm70 °FPassing clouds.8 mph33%30.24 "HgN/A
4:00 pm72 °FPassing clouds.7 mph31%30.24 "HgN/A
3:00 pm70 °FScattered clouds.3 mph33%30.27 "HgN/A
2:00 pm72 °FSunny.5 mph31%30.27 "Hg10 mi
1:00 pm70 °FPassing clouds.9 mph35%30.30 "HgN/A
12:00 pm68 °FPassing clouds.13 mph40%30.33 "HgN/A
Weather by CustomWeather, © 2017

See weather overviewHow to use our weather pages